Regional Weather Roundup
Issued by NWS

Home | Current Version | Previous Version | Text Only | Print | Product List | Glossary On
Versions: 1 2 3 4 5 6 7 8 9 10 11 12 13 14 15 16 17 18 19 20 21 22 23 24 25 26 27 28 29 30 31 32 33 34 35 36 37 38 39 40 41 42 43 44 45 46 47 48 49 50
000
ASUS45 KBOI 280510
RWRID
WEATHER ROUNDUP FOR IDAHO
NATIONAL WEATHER SERVICE BOISE ID
1100 PM MDT FRI MAR 27 2015

NOTE: "FAIR" INDICATES FEW OR NO CLOUDS BELOW 12000 FEET
WITH NO SIGNIFICANT WEATHER AND/OR OBSTRUCTIONS TO VISIBILITY

IDZ012-014-280600-
SOUTHWEST IDAHO


CITY           SKY/WX    TMP DP  RH WIND       PRES   REMARKS
BOISE          CLEAR     63  40  42 SE13      29.96S
CALDWELL       PTCLDY    55  39  54 SE9       29.95S
MOUNTAIN HOME  CLEAR     53  41  62 E7        29.99S
$$

IDZ016-017-280600-
SOUTHCENTRAL IDAHO


CITY           SKY/WX    TMP DP  RH WIND       PRES   REMARKS
BURLEY         CLEAR     52  37  56 S10       30.07S
JEROME         CLEAR     59  34  39 E6        30.06S
TWIN FALLS     CLEAR     56  38  50 S10       30.06F
$$

IDZ019>023-280600-
SOUTHEAST IDAHO


CITY           SKY/WX    TMP DP  RH WIND       PRES   REMARKS
IDAHO FALLS    CLEAR     51  33  50 S7        30.11S
POCATELLO      CLEAR     58  29  33 S13       30.10S
REXBURG        CLEAR     53  32  44 S8        30.11S
$$

IDZ006-010-011-018-031-032-280600-
CENTRAL IDAHO MOUNTAINS


CITY           SKY/WX    TMP DP  RH WIND       PRES   REMARKS
MCCALL         MOCLDY    45  38  76 CALM      30.02F
HAILEY         CLEAR     50  37  62 NW14      30.14S
STANLEY          N/A     41  30  65 SE5       30.17F
SALMON         CLEAR    N/A N/A N/A CALM      30.01S
CHALLIS        CLEAR     53  31  42 SE3       30.09R
$$

IDZ002-004-006-007-026-280600-
NORTHERN IDAHO


CITY           SKY/WX    TMP DP  RH WIND       PRES   REMARKS
LEWISTON       PTCLDY    61  52  72 S7        29.85S
LOWELL           N/A     51  48  89 N3        29.92S
COEUR D`ALENE  CLEAR     54  46  76 CALM      29.86F
MULLAN PASS    PTCLDY    49  36  61 SW6       30.00F
$$


USA.gov is the U.S. government's official web portal to all federal, state and local government web resources and services.